Year,Month,Day,Hour,Minute,Value (Times are PST for temperature in C)
2008,05,21,00,00,10.70
2008,05,21,00,01,10.70
2008,05,21,00,02,10.70
2008,05,21,00,03,10.70
2008,05,21,00,04,10.70
2008,05,21,00,05,10.80
2008,05,21,00,06,10.80
2008,05,21,00,07,10.70
2008,05,21,00,08,10.70
2008,05,21,00,09,10.70
2008,05,21,00,10,10.70
2008,05,21,00,11,10.70
2008,05,21,00,12,10.70
2008,05,21,00,13,10.70
2008,05,21,00,14,10.70
2008,05,21,00,15,10.70
2008,05,21,00,16,10.60
2008,05,21,00,17,10.60
2008,05,21,00,18,10.60
2008,05,21,00,19,10.70
2008,05,21,00,20,10.70
2008,05,21,00,21,10.70
2008,05,21,00,22,10.70
2008,05,21,00,23,10.70
2008,05,21,00,24,10.70
2008,05,21,00,25,10.70
2008,05,21,00,26,10.70
2008,05,21,00,27,10.70
2008,05,21,00,28,10.70
2008,05,21,00,29,10.70
2008,05,21,00,30,10.70
2008,05,21,00,31,10.70
2008,05,21,00,32,10.70
2008,05,21,00,33,10.70
2008,05,21,00,34,10.80
2008,05,21,00,35,10.80
2008,05,21,00,36,10.80
2008,05,21,00,37,10.80
2008,05,21,00,38,10.80
2008,05,21,00,39,10.80
2008,05,21,00,40,10.80
2008,05,21,00,41,10.80
2008,05,21,00,42,10.80
2008,05,21,00,43,10.80
2008,05,21,00,44,10.90
2008,05,21,00,45,10.90
2008,05,21,00,46,10.90
2008,05,21,00,47,10.90
2008,05,21,00,48,10.90
2008,05,21,00,49,10.90
2008,05,21,00,50,10.90
2008,05,21,00,51,10.90
2008,05,21,00,52,10.90
2008,05,21,00,53,10.90
2008,05,21,00,54,10.90
2008,05,21,00,55,10.90
2008,05,21,00,56,10.90
2008,05,21,00,57,10.90
2008,05,21,00,58,10.90
2008,05,21,00,59,10.90
2008,05,21,01,00,10.90
2008,05,21,01,01,10.90
2008,05,21,01,02,10.90
2008,05,21,01,03,10.90
2008,05,21,01,04,11.00
2008,05,21,01,05,11.00
2008,05,21,01,06,11.10
2008,05,21,01,07,11.10
2008,05,21,01,08,11.10
2008,05,21,01,09,11.10
2008,05,21,01,10,11.10
2008,05,21,01,11,11.10
2008,05,21,01,12,11.10
2008,05,21,01,13,11.10
2008,05,21,01,14,11.00
2008,05,21,01,15,11.00
2008,05,21,01,16,11.00
2008,05,21,01,17,11.00
2008,05,21,01,18,11.10
2008,05,21,01,19,11.10
2008,05,21,01,20,11.10
2008,05,21,01,21,11.10
2008,05,21,01,22,11.00
2008,05,21,01,23,11.00
2008,05,21,01,24,11.00
2008,05,21,01,25,11.00
2008,05,21,01,26,11.00
2008,05,21,01,27,11.00
2008,05,21,01,28,10.90
2008,05,21,01,29,10.90
2008,05,21,01,30,10.90
2008,05,21,01,31,10.90
2008,05,21,01,32,10.90
2008,05,21,01,33,10.90
2008,05,21,01,34,10.90
2008,05,21,01,35,10.90
2008,05,21,01,36,10.90
2008,05,21,01,37,10.90
2008,05,21,01,38,10.90
2008,05,21,01,39,10.90
2008,05,21,01,40,10.90
2008,05,21,01,41,10.90
2008,05,21,01,42,10.90
2008,05,21,01,43,10.90
2008,05,21,01,44,10.90
2008,05,21,01,45,10.90
2008,05,21,01,46,10.90
2008,05,21,01,47,10.90
2008,05,21,01,48,10.90
2008,05,21,01,49,10.90
2008,05,21,01,50,10.90
2008,05,21,01,51,10.90
2008,05,21,01,52,10.90
2008,05,21,01,53,10.90
2008,05,21,01,54,10.90
2008,05,21,01,55,10.90
2008,05,21,01,56,10.80
2008,05,21,01,57,10.80
2008,05,21,01,58,10.80
2008,05,21,01,59,10.80
2008,05,21,02,00,10.80
2008,05,21,02,01,10.80
2008,05,21,02,02,10.80
2008,05,21,02,03,10.80
2008,05,21,02,04,10.80
2008,05,21,02,05,10.80
2008,05,21,02,06,10.80
2008,05,21,02,07,10.80
2008,05,21,02,08,10.80
2008,05,21,02,09,10.80
2008,05,21,02,10,10.80
2008,05,21,02,11,10.80
2008,05,21,02,12,10.80
2008,05,21,02,13,10.80
2008,05,21,02,14,10.80
2008,05,21,02,15,10.80
2008,05,21,02,16,10.80
2008,05,21,02,17,10.80
2008,05,21,02,18,10.70
2008,05,21,02,19,10.70
2008,05,21,02,20,10.70
2008,05,21,02,21,10.70
2008,05,21,02,22,10.70
2008,05,21,02,23,10.70
2008,05,21,02,24,10.70
2008,05,21,02,25,10.70
2008,05,21,02,26,10.70
2008,05,21,02,27,10.70
2008,05,21,02,28,10.70
2008,05,21,02,29,10.70
2008,05,21,02,30,10.70
2008,05,21,02,31,10.70
2008,05,21,02,32,10.70
2008,05,21,02,33,10.70
2008,05,21,02,34,10.70
2008,05,21,02,35,10.70
2008,05,21,02,36,10.70
2008,05,21,02,37,10.70
2008,05,21,02,38,10.70
2008,05,21,02,39,10.70
2008,05,21,02,40,10.70
2008,05,21,02,41,10.70
2008,05,21,02,42,10.70
2008,05,21,02,43,10.70
2008,05,21,02,44,10.70
2008,05,21,02,45,10.70
2008,05,21,02,46,10.70
2008,05,21,02,47,10.70
2008,05,21,02,48,10.80
2008,05,21,02,49,10.80
2008,05,21,02,50,10.80
2008,05,21,02,51,10.80
2008,05,21,02,52,10.80
2008,05,21,02,53,10.80
2008,05,21,02,54,10.80
2008,05,21,02,55,10.80
2008,05,21,02,56,10.80
2008,05,21,02,57,10.80
2008,05,21,02,58,10.70
2008,05,21,02,59,10.80
2008,05,21,03,00,10.80
2008,05,21,03,01,10.80
2008,05,21,03,02,10.80
2008,05,21,03,03,10.80
2008,05,21,03,04,10.80
2008,05,21,03,05,10.80
2008,05,21,03,06,10.80
2008,05,21,03,07,10.80
2008,05,21,03,08,10.80
2008,05,21,03,09,10.80
2008,05,21,03,10,10.70
2008,05,21,03,11,10.70
2008,05,21,03,12,10.70
2008,05,21,03,13,10.70
2008,05,21,03,14,10.70
2008,05,21,03,15,10.70
2008,05,21,03,16,10.70
2008,05,21,03,17,10.80
2008,05,21,03,18,10.80
2008,05,21,03,19,10.80
2008,05,21,03,20,10.80
2008,05,21,03,21,10.80
2008,05,21,03,22,10.80
2008,05,21,03,23,10.80
2008,05,21,03,24,10.80
2008,05,21,03,25,10.70
2008,05,21,03,26,10.70
2008,05,21,03,27,10.70
2008,05,21,03,28,10.70
2008,05,21,03,29,10.70
2008,05,21,03,30,10.70
2008,05,21,03,31,10.60
2008,05,21,03,32,10.60
2008,05,21,03,33,10.60
2008,05,21,03,34,10.60
2008,05,21,03,35,10.50
2008,05,21,03,36,10.50
2008,05,21,03,37,10.50
2008,05,21,03,38,10.50
2008,05,21,03,39,10.50
2008,05,21,03,40,10.40
2008,05,21,03,41,10.40
2008,05,21,03,42,10.40
2008,05,21,03,43,10.40
2008,05,21,03,44,10.40
2008,05,21,03,45,10.40
2008,05,21,03,46,10.40
2008,05,21,03,47,10.40
2008,05,21,03,48,10.30
2008,05,21,03,49,10.30
2008,05,21,03,50,10.30
2008,05,21,03,51,10.30
2008,05,21,03,52,10.30
2008,05,21,03,53,10.30
2008,05,21,03,54,10.30
2008,05,21,03,55,10.30
2008,05,21,03,56,10.30
2008,05,21,03,57,10.30
2008,05,21,03,58,10.30
2008,05,21,03,59,10.30
2008,05,21,04,00,10.30
2008,05,21,04,01,10.30
2008,05,21,04,02,10.30
2008,05,21,04,03,10.30
2008,05,21,04,05,10.30
2008,05,21,04,22,10.30
2008,05,21,04,23,10.30
2008,05,21,04,24,10.30
2008,05,21,04,25,10.30
2008,05,21,04,26,10.30
2008,05,21,04,27,10.30
2008,05,21,04,28,10.30
2008,05,21,04,29,10.30
2008,05,21,04,30,10.20
2008,05,21,04,31,10.20
2008,05,21,04,32,10.20
2008,05,21,04,33,10.30
2008,05,21,04,34,10.30
2008,05,21,04,35,10.30
2008,05,21,04,36,10.30
2008,05,21,04,37,10.30
2008,05,21,04,38,10.30
2008,05,21,04,39,10.30
2008,05,21,04,40,10.30
2008,05,21,04,41,10.30
2008,05,21,04,42,10.30
2008,05,21,04,43,10.30
2008,05,21,04,44,10.30
2008,05,21,04,45,10.30
2008,05,21,04,46,10.30
2008,05,21,04,47,10.30
2008,05,21,04,48,10.30
2008,05,21,04,49,10.30
2008,05,21,04,50,10.30
2008,05,21,04,51,10.30
2008,05,21,04,52,10.30
2008,05,21,04,53,10.30
2008,05,21,04,54,10.30
2008,05,21,04,55,10.20
2008,05,21,04,56,10.20
2008,05,21,04,57,10.20
2008,05,21,04,58,10.20
2008,05,21,04,59,10.20
2008,05,21,05,00,10.20
2008,05,21,05,01,10.20
2008,05,21,05,02,10.20
2008,05,21,05,03,10.20
2008,05,21,05,04,10.20
2008,05,21,05,05,10.10
2008,05,21,05,06,10.10
2008,05,21,05,07,10.10
2008,05,21,05,08,10.10
2008,05,21,05,09,10.10
2008,05,21,05,10,10.10
2008,05,21,05,11,10.10
2008,05,21,05,12,10.10
2008,05,21,05,13,10.10
2008,05,21,05,14,10.10
2008,05,21,05,15,10.10
2008,05,21,05,16,10.10
2008,05,21,05,17,10.10
2008,05,21,05,18,10.00
2008,05,21,05,19,10.00
2008,05,21,05,20,10.00
2008,05,21,05,21,10.00
2008,05,21,05,22,9.90
2008,05,21,05,23,9.90
2008,05,21,05,24,9.90
2008,05,21,05,25,9.90
2008,05,21,05,26,9.90
2008,05,21,05,27,9.90
2008,05,21,05,28,9.90
2008,05,21,05,29,9.90
2008,05,21,05,30,9.80
2008,05,21,05,31,9.80
2008,05,21,05,32,9.80
2008,05,21,05,33,9.80
2008,05,21,05,34,9.80
2008,05,21,05,35,9.80
2008,05,21,05,36,9.80
2008,05,21,05,37,9.80
2008,05,21,05,38,9.80
2008,05,21,05,39,9.80
2008,05,21,05,40,9.80
2008,05,21,05,41,9.80
2008,05,21,05,42,9.80
2008,05,21,05,43,9.80
2008,05,21,05,44,9.80
2008,05,21,05,45,9.80
2008,05,21,05,46,9.80
2008,05,21,05,47,9.80
2008,05,21,05,48,9.80
2008,05,21,05,49,9.80
2008,05,21,05,50,9.80
2008,05,21,05,51,9.80
2008,05,21,05,52,9.80
2008,05,21,05,53,9.80
2008,05,21,05,54,9.80
2008,05,21,05,55,9.80
2008,05,21,05,56,9.80
2008,05,21,05,57,9.80
2008,05,21,05,58,9.80
2008,05,21,05,59,9.80
2008,05,21,06,00,9.80
2008,05,21,06,01,9.80
2008,05,21,06,02,9.70
2008,05,21,06,03,9.70
2008,05,21,06,04,9.70
2008,05,21,06,05,9.70
2008,05,21,06,06,9.70
2008,05,21,06,07,9.70
2008,05,21,06,08,9.70
2008,05,21,06,09,9.70
2008,05,21,06,10,9.70
2008,05,21,06,11,9.70
2008,05,21,06,12,9.80
2008,05,21,06,13,9.80
2008,05,21,06,14,9.80
2008,05,21,06,15,9.80
2008,05,21,06,16,9.70
2008,05,21,06,17,9.70
2008,05,21,06,18,9.70
2008,05,21,06,19,9.70
2008,05,21,06,20,9.70
2008,05,21,06,21,9.70
2008,05,21,06,22,9.70
2008,05,21,06,23,9.70
2008,05,21,06,24,9.70
2008,05,21,06,25,9.70
2008,05,21,06,26,9.70
2008,05,21,06,27,9.70
2008,05,21,06,28,9.60
2008,05,21,06,29,9.60
2008,05,21,06,30,9.60
2008,05,21,06,31,9.60
2008,05,21,06,32,9.60
2008,05,21,06,33,9.60
2008,05,21,06,34,9.60
2008,05,21,06,35,9.60
2008,05,21,06,36,9.60
2008,05,21,06,37,9.60
2008,05,21,06,38,9.60
2008,05,21,06,39,9.60
2008,05,21,06,40,9.60
2008,05,21,06,41,9.60
2008,05,21,06,42,9.60
2008,05,21,06,43,9.60
2008,05,21,06,44,9.60
2008,05,21,06,45,9.60
2008,05,21,06,46,9.60
2008,05,21,06,47,9.60
2008,05,21,06,48,9.60
2008,05,21,06,49,9.60
2008,05,21,06,50,9.60
2008,05,21,06,51,9.60
2008,05,21,06,52,9.70
2008,05,21,06,53,9.70
2008,05,21,06,54,9.70
2008,05,21,06,55,9.70
2008,05,21,06,56,9.70
2008,05,21,06,57,9.70
2008,05,21,06,58,9.70
2008,05,21,06,59,9.70
2008,05,21,07,00,9.70
2008,05,21,07,01,9.70
2008,05,21,07,02,9.80
2008,05,21,07,03,9.80
2008,05,21,07,04,9.80
2008,05,21,07,05,9.80
2008,05,21,07,06,9.80
2008,05,21,07,07,9.80
2008,05,21,07,08,9.80
2008,05,21,07,09,9.80
2008,05,21,07,10,9.80
2008,05,21,07,11,9.80
2008,05,21,07,12,9.80
2008,05,21,07,13,9.80
2008,05,21,07,14,9.80
2008,05,21,07,15,9.80
2008,05,21,07,16,9.80
2008,05,21,07,17,9.80
2008,05,21,07,18,9.80
2008,05,21,07,19,9.80
2008,05,21,07,20,9.80
2008,05,21,07,21,9.80
2008,05,21,07,22,9.80
2008,05,21,07,23,9.80
2008,05,21,07,24,9.90
2008,05,21,07,25,9.90
2008,05,21,07,26,9.90
2008,05,21,07,27,9.90
2008,05,21,07,28,9.90
2008,05,21,07,29,9.90
2008,05,21,07,30,9.90
2008,05,21,07,31,9.90
2008,05,21,07,32,9.90
2008,05,21,07,33,10.00
2008,05,21,07,34,10.00
2008,05,21,07,35,10.00
2008,05,21,07,36,10.00
2008,05,21,07,37,10.10
2008,05,21,07,38,10.10
2008,05,21,07,39,10.10
2008,05,21,07,40,10.10
2008,05,21,07,41,10.10
2008,05,21,07,42,10.10
2008,05,21,07,43,10.20
2008,05,21,07,44,10.20
2008,05,21,07,45,10.20
2008,05,21,07,46,10.20
2008,05,21,07,47,10.20
2008,05,21,07,48,10.20
2008,05,21,07,49,10.30
2008,05,21,07,50,10.30
2008,05,21,07,51,10.40
2008,05,21,07,52,10.40
2008,05,21,07,53,10.40
2008,05,21,07,54,10.50
2008,05,21,07,55,10.50
2008,05,21,07,56,10.60
2008,05,21,07,57,10.60
2008,05,21,07,58,10.70
2008,05,21,07,59,10.70
2008,05,21,08,00,10.70
2008,05,21,08,01,10.80
2008,05,21,08,02,10.80
2008,05,21,08,03,10.80
2008,05,21,08,04,10.90
2008,05,21,08,05,10.90
2008,05,21,08,06,11.00
2008,05,21,08,07,11.00
2008,05,21,08,08,11.10
2008,05,21,08,09,11.20
2008,05,21,08,10,11.20
2008,05,21,08,11,11.20
2008,05,21,08,12,11.30
2008,05,21,08,13,11.30
2008,05,21,08,14,11.30
2008,05,21,08,15,11.40
2008,05,21,08,16,11.40
2008,05,21,08,17,11.40
2008,05,21,08,18,11.50
2008,05,21,08,19,11.50
2008,05,21,08,20,11.50
2008,05,21,08,21,11.60
2008,05,21,08,22,11.60
2008,05,21,08,23,11.70
2008,05,21,08,24,11.70
2008,05,21,08,25,11.70
2008,05,21,08,26,11.70
2008,05,21,08,27,11.70
2008,05,21,08,28,11.70
2008,05,21,08,29,11.70
2008,05,21,08,30,11.70
2008,05,21,08,31,11.70
2008,05,21,08,32,11.70
2008,05,21,08,33,11.70
2008,05,21,08,34,11.70
2008,05,21,08,35,11.70
2008,05,21,08,36,11.80
2008,05,21,08,37,11.80
2008,05,21,08,38,11.80
2008,05,21,08,39,11.80
2008,05,21,08,40,11.80
2008,05,21,08,41,11.80
2008,05,21,08,42,11.80
2008,05,21,08,43,11.80
2008,05,21,08,44,11.80
2008,05,21,08,45,11.80
2008,05,21,08,46,11.80
2008,05,21,08,47,11.80
2008,05,21,08,48,11.80
2008,05,21,08,49,11.80
2008,05,21,08,50,11.70
2008,05,21,08,51,11.70
2008,05,21,08,52,11.70
2008,05,21,08,53,11.70
2008,05,21,08,54,11.80
2008,05,21,08,55,11.80
2008,05,21,08,56,11.80
2008,05,21,08,57,11.80
2008,05,21,08,58,11.80
2008,05,21,08,59,11.80
2008,05,21,09,00,11.90
2008,05,21,09,01,11.90
2008,05,21,09,02,11.90
2008,05,21,09,03,11.90
2008,05,21,09,04,11.90
2008,05,21,09,05,11.90
2008,05,21,09,06,12.00
2008,05,21,09,07,12.00
2008,05,21,09,08,12.10
2008,05,21,09,09,12.10
2008,05,21,09,10,12.10
2008,05,21,09,11,12.10
2008,05,21,09,12,12.10
2008,05,21,09,13,12.20
2008,05,21,09,14,12.20
2008,05,21,09,15,12.20
2008,05,21,09,16,12.20
2008,05,21,09,17,12.20
2008,05,21,09,18,12.20
2008,05,21,09,19,12.30
2008,05,21,09,20,12.30
2008,05,21,09,21,12.30
2008,05,21,09,22,12.30
2008,05,21,09,23,12.30
2008,05,21,09,24,12.30
2008,05,21,09,25,12.30
2008,05,21,09,26,12.30
2008,05,21,09,27,12.40
2008,05,21,09,28,12.40
2008,05,21,09,29,12.40
2008,05,21,09,30,12.50
2008,05,21,09,31,12.60
2008,05,21,09,32,12.60
2008,05,21,09,33,12.60
2008,05,21,09,34,12.60
2008,05,21,09,35,12.70
2008,05,21,09,36,12.70
2008,05,21,09,37,12.80
2008,05,21,09,38,12.90
2008,05,21,09,39,13.00
2008,05,21,09,40,13.10
2008,05,21,09,41,13.20
2008,05,21,09,42,13.20
2008,05,21,09,43,13.30
2008,05,21,09,44,13.30
2008,05,21,09,45,13.30
2008,05,21,09,46,13.30
2008,05,21,09,47,13.30
2008,05,21,09,48,13.30
2008,05,21,09,49,13.30
2008,05,21,09,50,13.30
2008,05,21,09,51,13.20
2008,05,21,09,52,13.20
2008,05,21,09,53,13.20
2008,05,21,09,54,13.20
2008,05,21,09,55,13.20
2008,05,21,09,56,13.20
2008,05,21,09,57,13.20
2008,05,21,09,58,13.20
2008,05,21,09,59,13.20
2008,05,21,10,00,13.20
2008,05,21,13,07,13.80
2008,05,21,13,08,13.80
2008,05,21,13,09,13.70
2008,05,21,13,10,13.60
2008,05,21,13,11,13.60
2008,05,21,13,12,13.60
2008,05,21,13,13,13.60
2008,05,21,13,14,13.70
2008,05,21,13,15,13.70
2008,05,21,13,16,13.80
2008,05,21,13,17,13.80
2008,05,21,13,18,13.80
2008,05,21,13,19,13.90
2008,05,21,13,20,13.90
2008,05,21,13,21,14.00
2008,05,21,13,22,14.00
2008,05,21,13,23,13.90
2008,05,21,13,24,13.80
2008,05,21,13,25,13.80
2008,05,21,13,26,13.80
2008,05,21,13,27,13.80
2008,05,21,13,28,13.80
2008,05,21,13,29,13.90
2008,05,21,13,30,13.90
2008,05,21,13,31,13.90
2008,05,21,13,32,14.00
2008,05,21,13,33,13.90
2008,05,21,13,34,13.90
2008,05,21,13,35,13.80
2008,05,21,13,36,13.80
2008,05,21,13,37,13.70
2008,05,21,13,38,13.60
2008,05,21,13,39,13.60
2008,05,21,13,40,13.50
2008,05,21,13,41,13.50
2008,05,21,13,42,13.50
2008,05,21,13,43,13.50
2008,05,21,13,44,13.40
2008,05,21,13,45,13.50
2008,05,21,13,46,13.50
2008,05,21,13,47,13.50
2008,05,21,13,48,13.50
2008,05,21,13,49,13.50
2008,05,21,13,50,13.40
2008,05,21,13,51,13.30
2008,05,21,13,52,13.20
2008,05,21,13,53,13.00
2008,05,21,13,54,12.90
2008,05,21,13,55,12.80
2008,05,21,13,56,12.70
2008,05,21,13,57,12.60
2008,05,21,13,58,12.60
2008,05,21,13,59,12.50
2008,05,21,14,00,12.50
2008,05,21,14,01,12.50
2008,05,21,14,02,12.50
2008,05,21,14,03,12.60
2008,05,21,14,04,12.60
2008,05,21,14,05,12.60
2008,05,21,14,06,12.70
2008,05,21,14,07,12.80
2008,05,21,14,08,13.00
2008,05,21,14,09,13.30
2008,05,21,14,10,13.50
2008,05,21,14,11,13.80
2008,05,21,14,12,14.00
2008,05,21,14,13,14.30
2008,05,21,14,14,14.50
2008,05,21,14,15,14.70
2008,05,21,14,16,14.80
2008,05,21,14,17,14.90
2008,05,21,14,18,15.00
2008,05,21,14,19,15.00
2008,05,21,14,20,15.00
2008,05,21,14,21,15.00
2008,05,21,14,22,15.00
2008,05,21,14,23,15.00
2008,05,21,14,24,15.00
2008,05,21,14,25,15.00
2008,05,21,14,26,15.00
2008,05,21,14,27,14.90
2008,05,21,14,28,14.70
2008,05,21,14,29,14.60
2008,05,21,14,30,14.50
2008,05,21,14,31,14.40
2008,05,21,14,32,14.30
2008,05,21,14,33,14.20
2008,05,21,14,34,14.20
2008,05,21,14,35,14.10
2008,05,21,14,36,14.10
2008,05,21,14,37,14.00
2008,05,21,14,38,14.00
2008,05,21,14,39,13.90
2008,05,21,14,40,13.90
2008,05,21,14,41,13.90
2008,05,21,14,42,13.90
2008,05,21,14,43,13.90
2008,05,21,14,44,13.80
2008,05,21,14,45,13.80
2008,05,21,14,46,13.80
2008,05,21,14,47,13.70
2008,05,21,14,48,13.70
2008,05,21,14,49,13.60
2008,05,21,14,50,13.60
2008,05,21,14,51,13.60
2008,05,21,14,52,13.60
2008,05,21,14,53,13.60
2008,05,21,14,54,13.60
2008,05,21,14,55,13.60
2008,05,21,14,56,13.60
2008,05,21,14,57,13.60
2008,05,21,14,58,13.60
2008,05,21,14,59,13.70
2008,05,21,15,00,13.70
2008,05,21,15,01,13.70
2008,05,21,15,02,13.80
2008,05,21,15,03,13.80
2008,05,21,15,04,13.80
2008,05,21,15,05,13.70
2008,05,21,15,06,13.70
2008,05,21,15,07,13.70
2008,05,21,15,08,13.60
2008,05,21,15,09,13.60
2008,05,21,15,10,13.60
2008,05,21,15,11,13.60
2008,05,21,15,12,13.60
2008,05,21,15,13,13.60
2008,05,21,15,14,13.50
2008,05,21,15,15,13.40
2008,05,21,15,16,13.40
2008,05,21,15,17,13.40
2008,05,21,15,18,13.40
2008,05,21,15,19,13.50
2008,05,21,15,20,13.50
2008,05,21,15,21,13.60
2008,05,21,15,22,13.70
2008,05,21,15,23,13.80
2008,05,21,15,24,13.80
2008,05,21,15,25,13.90
2008,05,21,15,26,13.90
2008,05,21,15,27,13.90
2008,05,21,15,28,13.90
2008,05,21,15,29,13.90
2008,05,21,15,30,14.00
2008,05,21,15,31,14.00
2008,05,21,15,32,14.10
2008,05,21,15,33,14.20
2008,05,21,15,34,14.20
2008,05,21,15,35,14.30
2008,05,21,15,36,14.30
2008,05,21,15,37,14.40
2008,05,21,15,38,14.50
2008,05,21,15,39,14.60
2008,05,21,15,40,14.60
2008,05,21,15,41,14.60
2008,05,21,15,42,14.50
2008,05,21,15,43,14.50
2008,05,21,15,44,14.50
2008,05,21,15,45,14.60
2008,05,21,15,46,14.50
2008,05,21,15,47,14.50
2008,05,21,15,48,14.50
2008,05,21,15,49,14.60
2008,05,21,15,50,14.60
2008,05,21,15,51,14.70
2008,05,21,15,52,14.70
2008,05,21,15,53,14.70
2008,05,21,15,54,14.80
2008,05,21,15,55,14.80
2008,05,21,15,56,14.80
2008,05,21,15,57,14.80
2008,05,21,15,58,14.70
2008,05,21,15,59,14.70
2008,05,21,16,00,14.60
2008,05,21,16,01,14.60
2008,05,21,16,02,14.60
2008,05,21,16,03,14.60
2008,05,21,16,04,14.50
2008,05,21,16,05,14.50
2008,05,21,16,06,14.50
2008,05,21,16,07,14.50
2008,05,21,16,08,14.50
2008,05,21,16,09,14.50
2008,05,21,16,10,14.60
2008,05,21,16,11,14.60
2008,05,21,16,12,14.60
2008,05,21,16,13,14.50
2008,05,21,16,14,14.40
2008,05,21,16,15,14.40
2008,05,21,16,16,14.40
2008,05,21,16,17,14.30
2008,05,21,16,18,14.30
2008,05,21,16,19,14.20
2008,05,21,16,20,14.20
2008,05,21,16,21,14.10
2008,05,21,16,22,14.10
2008,05,21,16,23,14.10
2008,05,21,16,24,14.00
2008,05,21,16,25,14.00
2008,05,21,16,26,14.00
2008,05,21,16,27,14.00
2008,05,21,16,28,13.90
2008,05,21,16,29,13.80
2008,05,21,16,30,13.80
2008,05,21,16,31,13.80
2008,05,21,16,32,13.80
2008,05,21,16,33,13.90
2008,05,21,16,34,13.90
2008,05,21,16,35,13.80
2008,05,21,16,36,13.80
2008,05,21,16,37,13.80
2008,05,21,16,38,13.70
2008,05,21,16,39,13.60
2008,05,21,16,40,13.60
2008,05,21,16,41,13.60
2008,05,21,16,42,13.60
2008,05,21,16,43,13.70
2008,05,21,16,44,13.80
2008,05,21,16,45,13.90
2008,05,21,16,46,13.90
2008,05,21,16,47,13.80
2008,05,21,16,48,13.80
2008,05,21,16,49,13.70
2008,05,21,16,50,13.70
2008,05,21,16,51,13.70
2008,05,21,16,52,13.60
2008,05,21,16,53,13.60
2008,05,21,16,54,13.60
2008,05,21,16,55,13.60
2008,05,21,16,56,13.60
2008,05,21,16,57,13.60
2008,05,21,16,58,13.60
2008,05,21,16,59,13.50
2008,05,21,17,00,13.50
2008,05,21,17,01,13.50
2008,05,21,17,02,13.40
2008,05,21,17,03,13.40
2008,05,21,17,04,13.40
2008,05,21,17,05,13.40
2008,05,21,17,06,13.50
2008,05,21,17,07,13.50
2008,05,21,17,08,13.40
2008,05,21,17,09,13.40
2008,05,21,17,10,13.40
2008,05,21,17,11,13.30
2008,05,21,17,12,13.30
2008,05,21,17,13,13.20
2008,05,21,17,14,13.20
2008,05,21,17,15,13.10
2008,05,21,17,16,13.20
2008,05,21,17,17,13.20
2008,05,21,17,18,13.20
2008,05,21,17,19,13.20
2008,05,21,17,20,13.20
2008,05,21,17,21,13.10
2008,05,21,17,22,13.10
2008,05,21,17,23,13.10
2008,05,21,17,24,13.10
2008,05,21,17,25,13.10
2008,05,21,17,26,13.20
2008,05,21,17,27,13.20
2008,05,21,17,28,13.20
2008,05,21,17,29,13.20
2008,05,21,17,30,13.20
2008,05,21,17,31,13.10
2008,05,21,17,32,13.10
2008,05,21,17,33,13.10
2008,05,21,17,34,13.10
2008,05,21,17,35,13.00
2008,05,21,17,36,12.90
2008,05,21,17,37,12.90
2008,05,21,17,38,12.90
2008,05,21,17,39,12.80
2008,05,21,17,40,12.80
2008,05,21,17,41,12.80
2008,05,21,17,42,12.80
2008,05,21,17,43,12.80
2008,05,21,17,44,12.90
2008,05,21,17,45,12.90
2008,05,21,17,46,13.00
2008,05,21,17,47,13.00
2008,05,21,17,48,13.00
2008,05,21,17,49,13.00
2008,05,21,17,50,13.10
2008,05,21,17,51,13.10
2008,05,21,17,52,13.10
2008,05,21,17,53,13.10
2008,05,21,17,54,13.20
2008,05,21,17,55,13.20
2008,05,21,17,56,13.30
2008,05,21,17,57,13.30
2008,05,21,17,58,13.20
2008,05,21,17,59,13.30
2008,05,21,18,00,13.30
2008,05,21,18,01,13.40
2008,05,21,18,02,13.40
2008,05,21,18,03,13.50
2008,05,21,18,04,13.40
2008,05,21,18,05,13.40
2008,05,21,18,06,13.40
2008,05,21,18,07,13.40
2008,05,21,18,08,13.40
2008,05,21,18,09,13.40
2008,05,21,18,10,13.50
2008,05,21,18,11,13.50
2008,05,21,18,12,13.40
2008,05,21,18,13,13.40
2008,05,21,18,14,13.30
2008,05,21,18,15,13.40
2008,05,21,18,16,13.30
2008,05,21,18,17,13.30
2008,05,21,18,18,13.20
2008,05,21,18,19,13.20
2008,05,21,18,20,13.20
2008,05,21,18,21,13.30
2008,05,21,18,22,13.30
2008,05,21,18,23,13.30
2008,05,21,18,24,13.30
2008,05,21,18,25,13.30
2008,05,21,18,26,13.40
2008,05,21,18,27,13.40
2008,05,21,18,28,13.40
2008,05,21,18,29,13.30
2008,05,21,18,30,13.30
2008,05,21,18,31,13.20
2008,05,21,18,32,13.20
2008,05,21,18,33,13.20
2008,05,21,18,34,13.20
2008,05,21,18,35,13.10
2008,05,21,18,36,13.10
2008,05,21,18,37,13.00
2008,05,21,18,38,13.00
2008,05,21,18,39,12.90
2008,05,21,18,40,12.90
2008,05,21,18,41,12.80
2008,05,21,18,42,12.70
2008,05,21,18,43,12.70
2008,05,21,18,44,12.60
2008,05,21,18,45,12.60
2008,05,21,18,46,12.60
2008,05,21,18,47,12.50
2008,05,21,18,48,12.50
2008,05,21,18,49,12.40
2008,05,21,18,50,12.40
2008,05,21,18,51,12.30
2008,05,21,18,52,12.30
2008,05,21,18,53,12.30
2008,05,21,18,54,12.30
2008,05,21,18,55,12.30
2008,05,21,18,56,12.20
2008,05,21,18,57,12.20
2008,05,21,18,58,12.20
2008,05,21,18,59,12.20
2008,05,21,19,00,12.20
2008,05,21,19,01,12.20
2008,05,21,19,02,12.20
2008,05,21,19,03,12.20
2008,05,21,19,04,12.20
2008,05,21,19,05,12.20
2008,05,21,19,06,12.20
2008,05,21,19,07,12.20
2008,05,21,19,08,12.20
2008,05,21,19,09,12.10
2008,05,21,19,10,12.10
2008,05,21,19,11,12.10
2008,05,21,19,12,12.10
2008,05,21,19,13,12.10
2008,05,21,19,14,12.10
2008,05,21,19,15,12.10
2008,05,21,19,16,12.10
2008,05,21,19,17,12.20
2008,05,21,19,18,12.20
2008,05,21,19,19,12.20
2008,05,21,19,20,12.20
2008,05,21,19,21,12.20
2008,05,21,19,22,12.20
2008,05,21,19,23,12.20
2008,05,21,19,24,12.20
2008,05,21,19,25,12.20
2008,05,21,19,26,12.20
2008,05,21,19,27,12.20
2008,05,21,19,28,12.20
2008,05,21,19,29,12.20
2008,05,21,19,30,12.20
2008,05,21,19,31,12.10
2008,05,21,19,32,12.10
2008,05,21,19,33,12.10
2008,05,21,19,34,12.00
2008,05,21,19,35,12.00
2008,05,21,19,36,11.90
2008,05,21,19,37,11.90
2008,05,21,19,38,11.90
2008,05,21,19,39,11.90
2008,05,21,19,40,11.90
2008,05,21,19,41,11.90
2008,05,21,19,42,12.00
2008,05,21,19,43,12.00
2008,05,21,19,44,12.10
2008,05,21,19,45,12.10
2008,05,21,19,46,12.10
2008,05,21,19,47,12.10
2008,05,21,19,48,12.10
2008,05,21,19,49,12.10
2008,05,21,19,50,12.10
2008,05,21,19,51,12.00
2008,05,21,19,52,12.00
2008,05,21,19,53,11.90
2008,05,21,19,54,11.90
2008,05,21,19,55,11.90
2008,05,21,19,56,11.90
2008,05,21,19,57,11.90
2008,05,21,19,58,11.90
2008,05,21,19,59,11.90
2008,05,21,20,00,11.80
2008,05,21,20,01,11.80
2008,05,21,20,02,11.80
2008,05,21,20,03,11.80
2008,05,21,20,04,11.70
2008,05,21,20,05,11.70
2008,05,21,20,06,11.60
2008,05,21,20,07,11.60
2008,05,21,20,08,11.60
2008,05,21,20,09,11.60
2008,05,21,20,10,11.60
2008,05,21,20,11,11.60
2008,05,21,20,12,11.60
2008,05,21,20,13,11.60
2008,05,21,20,14,11.50
2008,05,21,20,15,11.50
2008,05,21,20,16,11.50
2008,05,21,20,17,11.50
2008,05,21,20,18,11.50
2008,05,21,20,19,11.60
2008,05,21,20,20,11.60
2008,05,21,20,21,11.60
2008,05,21,20,22,11.60
2008,05,21,20,23,11.60
2008,05,21,20,24,11.60
2008,05,21,20,25,11.60
2008,05,21,20,26,11.60
2008,05,21,20,27,11.60
2008,05,21,20,28,11.60
2008,05,21,20,29,11.60
2008,05,21,20,30,11.60
2008,05,21,20,31,11.60
2008,05,21,20,32,11.60
2008,05,21,20,33,11.60
2008,05,21,20,34,11.60
2008,05,21,20,35,11.60
2008,05,21,20,36,11.60
2008,05,21,20,37,11.60
2008,05,21,20,38,11.60
2008,05,21,20,39,11.60
2008,05,21,20,40,11.50
2008,05,21,20,41,11.50
2008,05,21,20,42,11.50
2008,05,21,20,43,11.50
2008,05,21,20,44,11.50
2008,05,21,20,45,11.50
2008,05,21,20,46,11.40
2008,05,21,20,47,11.40
2008,05,21,20,48,11.40